�������l�o���
Date,Time,MP-1(��Sv/h),MP-2(��Sv/h),MP-3(��Sv/h),MP-4(��Sv/h),MP-5(��Sv/h),MP-6(��Sv/h),MP-7(��Sv/h),����,����(m/s),���J
2018/01/07,00:00,0.343,0.208,0.348,0.325,0.305,0.172,0.103,���k��,1.9,��
2018/01/07,00:10,0.344,0.207,0.348,0.326,0.309,0.173,0.102,�k��,2.7,��
2018/01/07,00:20,0.342,0.208,0.348,0.325,0.304,0.172,0.103,�k��,4.3,��
2018/01/07,00:30,0.343,0.208,0.349,0.325,0.306,0.173,0.102,���k��,5.6,��
2018/01/07,00:40,0.344,0.208,0.347,0.325,0.306,0.172,0.103,���k��,2.9,��
2018/01/07,00:50,0.344,0.208,0.347,0.326,0.306,0.172,0.102,��,2.1,��
2018/01/07,01:00,0.342,0.208,0.347,0.327,0.307,0.172,0.102,���k��,2.1,��
2018/01/07,01:10,0.343,0.207,0.348,0.325,0.307,0.171,0.103,�k,1.6,��
2018/01/07,01:20,0.343,0.209,0.349,0.326,0.305,0.171,0.102,�k�k��,3.7,��
2018/01/07,01:30,0.343,0.207,0.349,0.325,0.305,0.170,0.102,�k,2.6,��
2018/01/07,01:40,0.343,0.208,0.348,0.326,0.307,0.172,0.101,�k�k��,2.7,��
2018/01/07,01:50,0.343,0.209,0.349,0.326,0.307,0.171,0.102,�k,2.9,��
2018/01/07,02:00,0.343,0.208,0.349,0.325,0.306,0.173,0.102,�k,2.1,��
2018/01/07,02:10,0.344,0.208,0.348,0.326,0.305,0.173,0.103,�k�k��,3.0,��
2018/01/07,02:20,0.343,0.207,0.349,0.325,0.306,0.171,0.102,�k,2.5,��
2018/01/07,02:30,0.343,0.207,0.350,0.325,0.307,0.172,0.102,�k�k��,3.2,��
2018/01/07,02:40,0.343,0.207,0.350,0.327,0.308,0.172,0.102,�k��,1.3,��
2018/01/07,02:50,0.343,0.208,0.349,0.325,0.306,0.172,0.102,�k�k��,1.7,��
2018/01/07,03:00,0.342,0.208,0.346,0.326,0.306,0.172,0.103,�k�k��,2.3,��
2018/01/07,03:10,0.343,0.208,0.347,0.325,0.306,0.171,0.102,���k��,1.0,��
2018/01/07,03:20,0.344,0.208,0.349,0.325,0.306,0.172,0.102,�k�k��,1.5,��
2018/01/07,03:30,0.344,0.209,0.350,0.325,0.307,0.172,0.102,�k��,2.5,��
2018/01/07,03:40,0.342,0.208,0.348,0.325,0.306,0.172,0.103,�k,3.8,��
2018/01/07,03:50,0.343,0.209,0.350,0.327,0.305,0.172,0.102,�k�k��,3.4,��
2018/01/07,04:00,0.343,0.208,0.349,0.326,0.307,0.172,0.102,�k��,4.5,��
2018/01/07,04:10,0.343,0.209,0.350,0.327,0.306,0.171,0.103,�k,2.8,��
2018/01/07,04:20,0.343,0.208,0.349,0.326,0.306,0.171,0.102,�k,5.9,��
2018/01/07,04:30,0.345,0.207,0.349,0.326,0.306,0.171,0.102,�k�k��,5.9,��
2018/01/07,04:40,0.342,0.208,0.349,0.326,0.306,0.171,0.103,�k,6.7,��
2018/01/07,04:50,0.344,0.208,0.349,0.327,0.306,0.172,0.102,�k,5.6,��
2018/01/07,05:00,0.344,0.207,0.348,0.326,0.307,0.172,0.103,�k�k��,7.1,��
2018/01/07,05:10,0.343,0.207,0.348,0.325,0.308,0.172,0.103,�k�k��,5.9,��
2018/01/07,05:20,0.344,0.208,0.349,0.326,0.306,0.172,0.103,�k,6.2,��
2018/01/07,05:30,0.343,0.208,0.350,0.325,0.307,0.172,0.103,�k,6.2,��
2018/01/07,05:40,0.342,0.209,0.349,0.325,0.306,0.172,0.103,�k,5.6,��
2018/01/07,05:50,0.343,0.208,0.348,0.327,0.306,0.171,0.103,�k,4.3,��
2018/01/07,06:00,0.344,0.208,0.348,0.325,0.308,0.171,0.103,�k,4.8,��
2018/01/07,06:10,0.343,0.208,0.347,0.325,0.307,0.173,0.103,�k�k��,4.9,��
2018/01/07,06:20,0.342,0.208,0.349,0.327,0.306,0.171,0.103,�k,4.8,��
2018/01/07,06:30,0.344,0.208,0.349,0.325,0.304,0.172,0.102,�k,4.6,��
2018/01/07,06:40,0.343,0.208,0.349,0.326,0.306,0.172,0.103,�k�k��,4.0,��
2018/01/07,06:50,0.343,0.208,0.349,0.325,0.306,0.171,0.102,�k�k��,4.8,��
2018/01/07,07:00,0.343,0.209,0.348,0.327,0.307,0.171,0.102,�k�k��,5.0,��
2018/01/07,07:10,0.343,0.209,0.348,0.325,0.306,0.172,0.103,�k�k��,4.9,��
2018/01/07,07:20,0.343,0.208,0.348,0.325,0.307,0.171,0.103,�k,4.6,��
2018/01/07,07:30,0.344,0.208,0.349,0.325,0.307,0.172,0.102,�k�k��,2.2,��
2018/01/07,07:40,0.343,0.208,0.349,0.325,0.307,0.171,0.102,�k,2.1,��
2018/01/07,07:50,0.342,0.207,0.349,0.326,0.306,0.171,0.102,���k��,1.1,��
2018/01/07,08:00,0.342,0.208,0.349,0.325,0.305,0.172,0.102,��,0.8,��
2018/01/07,08:10,0.343,0.209,0.347,0.325,0.305,0.171,0.103,-,CALM,��
2018/01/07,08:20,0.343,0.208,0.348,0.325,0.305,0.172,0.102,��,0.6,��
2018/01/07,08:30,0.344,0.208,0.349,0.324,0.306,0.172,0.103,�k��,3.1,��
2018/01/07,08:40,0.342,0.208,0.348,0.325,0.307,0.171,0.102,�k�k��,2.8,��
2018/01/07,08:50,0.343,0.208,0.348,0.325,0.307,0.171,0.103,�k,2.6,��
2018/01/07,09:00,0.342,0.207,0.349,0.324,0.305,0.171,0.102,�k�k��,3.0,��
2018/01/07,09:10,0.342,0.207,0.348,0.326,0.306,0.171,0.102,�k�k��,1.1,��
2018/01/07,09:20,0.344,0.209,0.348,0.325,0.306,0.171,0.101,��,0.9,��
2018/01/07,09:30,0.343,0.208,0.347,0.324,0.305,0.171,0.102,���쓌,0.9,��
2018/01/07,09:40,0.342,0.207,0.348,0.326,0.306,0.170,0.102,���k��,1.4,��
2018/01/07,09:50,0.342,0.207,0.347,0.325,0.307,0.171,0.102,��,1.3,��
2018/01/07,10:00,0.343,0.207,0.347,0.324,0.307,0.173,0.102,���쓌,1.4,��
2018/01/07,10:10,0.343,0.207,0.347,0.326,0.306,0.170,0.102,�쓌,1.2,��
2018/01/07,10:20,0.341,0.208,0.349,0.324,0.307,0.171,0.102,��쓌,1.0,��
2018/01/07,10:30,0.340,0.207,0.348,0.326,0.306,0.171,0.102,��쓌,1.2,��
2018/01/07,10:40,0.341,0.206,0.347,0.325,0.305,0.171,0.102,��,2.4,��
2018/01/07,10:50,0.339,0.206,0.348,0.325,0.307,0.172,0.102,�쓌,2.6,��
2018/01/07,11:00,0.340,0.207,0.349,0.327,0.305,0.171,0.102,�쓌,2.7,��
2018/01/07,11:10,0.340,0.206,0.348,0.325,0.307,0.171,0.102,�쓌,2.3,��
2018/01/07,11:20,0.339,0.207,0.348,0.324,0.305,0.172,0.102,�쓌,2.7,��
2018/01/07,11:30,0.341,0.208,0.348,0.328,0.307,0.173,0.102,�쓌,2.8,��
2018/01/07,11:40,0.341,0.206,0.348,0.325,0.307,0.171,0.102,�쓌,3.9,��
2018/01/07,11:50,0.342,0.208,0.345,0.326,0.307,0.172,0.102,���쓌,2.7,��
2018/01/07,12:00,0.340,0.207,0.346,0.326,0.308,0.172,0.102,���쓌,3.0,��
2018/01/07,12:10,0.341,0.206,0.348,0.325,0.306,0.172,0.102,�쓌,2.6,��
2018/01/07,12:20,0.339,0.209,0.346,0.326,0.309,0.172,0.101,�쓌,2.4,��
2018/01/07,12:30,0.341,0.207,0.346,0.326,0.306,0.172,0.102,�쓌,2.9,��
2018/01/07,12:40,0.338,0.205,0.347,0.326,0.308,0.172,0.101,��쓌,1.6,��
2018/01/07,12:50,0.341,0.208,0.347,0.325,0.307,0.173,0.102,��쓌,2.5,��
2018/01/07,13:00,0.338,0.207,0.348,0.325,0.306,0.171,0.103,��쓌,1.6,��
2018/01/07,13:10,0.340,0.207,0.347,0.324,0.309,0.172,0.103,���k��,1.5,��
2018/01/07,13:20,0.341,0.206,0.347,0.326,0.307,0.172,0.103,���쐼,3.5,��
2018/01/07,13:30,0.342,0.208,0.349,0.325,0.308,0.172,0.102,��쐼,3.2,��
2018/01/07,13:40,0.343,0.207,0.346,0.324,0.310,0.171,0.102,��,3.0,��
2018/01/07,13:50,0.343,0.208,0.347,0.328,0.307,0.172,0.102,���k��,2.1,��
2018/01/07,14:00,0.343,0.208,0.348,0.325,0.308,0.172,0.101,���k��,2.0,��
2018/01/07,14:10,0.344,0.208,0.348,0.325,0.308,0.171,0.102,��,4.1,��
2018/01/07,14:20,0.343,0.208,0.350,0.325,0.306,0.171,0.103,��,4.2,��
2018/01/07,14:30,0.341,0.207,0.348,0.325,0.307,0.171,0.102,��,4.9,��
2018/01/07,14:40,0.344,0.208,0.347,0.327,0.308,0.172,0.103,���k��,6.0,��
2018/01/07,14:50,0.343,0.208,0.349,0.327,0.308,0.172,0.103,���k��,5.6,��
2018/01/07,15:00,0.343,0.207,0.349,0.327,0.309,0.172,0.102,���k��,4.5,��
2018/01/07,15:10,0.343,0.208,0.348,0.328,0.308,0.172,0.102,���k��,4.6,��
2018/01/07,15:20,0.342,0.209,0.348,0.325,0.307,0.171,0.102,�k�k��,1.8,��
2018/01/07,15:30,0.343,0.209,0.349,0.327,0.308,0.172,0.103,�k��,1.0,��
2018/01/07,15:40,0.343,0.208,0.349,0.327,0.307,0.172,0.102,�k�k��,0.8,��
2018/01/07,15:50,0.343,0.208,0.347,0.326,0.307,0.172,0.102,���k��,0.9,��
2018/01/07,16:00,0.343,0.207,0.348,0.326,0.307,0.172,0.102,��,0.7,��
2018/01/07,16:10,0.343,0.209,0.348,0.326,0.307,0.172,0.102,��,0.6,��
2018/01/07,16:20,0.341,0.207,0.349,0.326,0.307,0.172,0.102,��,2.4,��
2018/01/07,16:30,0.342,0.209,0.347,0.327,0.307,0.171,0.102,���k��,4.0,��
2018/01/07,16:40,0.344,0.207,0.348,0.326,0.307,0.172,0.102,��,3.8,��
2018/01/07,16:50,0.342,0.208,0.350,0.327,0.308,0.173,0.102,��,5.9,��
2018/01/07,17:00,0.342,0.208,0.348,0.327,0.305,0.172,0.102,��,6.8,��
2018/01/07,17:10,0.343,0.207,0.349,0.325,0.308,0.172,0.102,��,7.3,��
2018/01/07,17:20,0.344,0.207,0.350,0.325,0.309,0.172,0.102,��,5.7,��
2018/01/07,17:30,0.343,0.209,0.348,0.326,0.306,0.171,0.101,��,7.4,��
2018/01/07,17:40,0.344,0.208,0.350,0.326,0.307,0.172,0.102,��,4.4,��
2018/01/07,17:50,0.342,0.208,0.349,0.325,0.306,0.172,0.103,��,4.5,��
2018/01/07,18:00,0.343,0.208,0.349,0.326,0.307,0.172,0.102,���k��,4.6,��
2018/01/07,18:10,0.343,0.208,0.349,0.325,0.307,0.172,0.102,���k��,4.9,��
2018/01/07,18:20,0.344,0.208,0.348,0.327,0.306,0.172,0.102,���k��,5.3,��
2018/01/07,18:30,0.343,0.208,0.348,0.328,0.308,0.172,0.102,��,6.6,��
2018/01/07,18:40,0.342,0.208,0.348,0.325,0.308,0.171,0.102,���k��,8.1,��
2018/01/07,18:50,0.343,0.207,0.348,0.325,0.308,0.171,0.102,���k��,7.1,��
2018/01/07,19:00,0.343,0.208,0.348,0.326,0.308,0.172,0.102,��,6.8,��
2018/01/07,19:10,0.343,0.208,0.349,0.325,0.308,0.172,0.103,��,7.1,��
2018/01/07,19:20,0.344,0.207,0.348,0.327,0.307,0.171,0.102,���k��,5.4,��
2018/01/07,19:30,0.343,0.207,0.347,0.326,0.308,0.172,0.102,���k��,4.5,��
2018/01/07,19:40,0.344,0.208,0.348,0.325,0.308,0.172,0.101,�k��,3.9,��
2018/01/07,19:50,0.343,0.208,0.348,0.326,0.307,0.172,0.102,�k��,3.5,��
2018/01/07,20:00,0.343,0.208,0.348,0.326,0.307,0.172,0.103,�k��,5.4,��
2018/01/07,20:10,0.342,0.207,0.349,0.326,0.307,0.172,0.103,�k��,5.3,��
2018/01/07,20:20,0.343,0.207,0.348,0.326,0.306,0.171,0.102,�k��,5.0,��
2018/01/07,20:30,0.343,0.207,0.348,0.325,0.307,0.172,0.102,���k��,3.4,��
2018/01/07,20:40,0.344,0.209,0.349,0.326,0.306,0.171,0.102,�k��,1.8,��
2018/01/07,20:50,0.343,0.209,0.349,0.327,0.307,0.171,0.103,���k��,3.1,��
2018/01/07,21:00,0.343,0.208,0.348,0.326,0.306,0.172,0.102,��,1.5,��
2018/01/07,21:10,0.343,0.207,0.349,0.325,0.307,0.172,0.102,���k��,1.3,��
2018/01/07,21:20,0.344,0.207,0.348,0.327,0.306,0.172,0.103,���k��,1.9,��
2018/01/07,21:30,0.343,0.208,0.348,0.325,0.306,0.173,0.102,�k��,2.0,��
2018/01/07,21:40,0.343,0.209,0.348,0.326,0.305,0.171,0.103,�k�k��,1.5,��
2018/01/07,21:50,0.342,0.208,0.348,0.326,0.306,0.172,0.102,�k�k��,1.6,��
2018/01/07,22:00,0.343,0.207,0.348,0.326,0.307,0.172,0.103,�k��,1.8,��
2018/01/07,22:10,0.342,0.207,0.348,0.326,0.306,0.172,0.102,�k��,2.2,��
2018/01/07,22:20,0.343,0.208,0.348,0.326,0.306,0.172,0.102,�k��,1.7,��
2018/01/07,22:30,0.343,0.208,0.348,0.325,0.306,0.171,0.102,�k��,1.5,��
2018/01/07,22:40,0.343,0.209,0.350,0.326,0.306,0.172,0.102,�k,1.1,��
2018/01/07,22:50,0.342,0.207,0.348,0.326,0.306,0.172,0.102,�k,2.9,��
2018/01/07,23:00,0.343,0.207,0.347,0.326,0.306,0.172,0.103,�k,2.0,��
2018/01/07,23:10,0.343,0.208,0.348,0.325,0.305,0.172,0.103,�k�k��,2.6,��
2018/01/07,23:20,0.343,0.208,0.348,0.327,0.307,0.172,0.102,�k��,2.2,��
2018/01/07,23:30,0.343,0.208,0.349,0.327,0.307,0.172,0.102,�k�k��,0.7,��
2018/01/07,23:40,0.344,0.207,0.348,0.325,0.307,0.171,0.102,�k�k��,1.6,��
2018/01/07,23:50,0.343,0.208,0.347,0.326,0.307,0.172,0.102,�k�k��,2.1,��
